This is the latest recevied weather packets stored in our database for station/object WW5JC. If no packets are shown the sender has not sent any weather packets the latest 10 day(s).
| Time | Temp. | Humidity | Pressure | Rain* | Wind** | Luminosity | Snow |
|---|---|---|---|---|---|---|---|
| 1777639043 | 12.22° C | 94% | 1018.5 hPa | 0 mm | - | 33 W/m² | - |
| 1777638740 | 12.22° C | 94% | 1018.4 hPa | 0 mm | - | 32 W/m² | - |
| 1777638437 | 12.22° C | 93% | 1018.4 hPa | 0 mm | - | 28 W/m² | - |
| 1777638135 | 12.22° C | 93% | 1018.6 hPa | 0 mm | - | 27 W/m² | - |
| 1777637830 | 12.22° C | 93% | 1018.7 hPa | 0 mm | - | 26 W/m² | - |
| 1777637527 | 12.22° C | 94% | 1018.5 hPa | 0 mm | - | 21 W/m² | - |
| 1777637224 | 12.22° C | 93% | 1018.5 hPa | 0 mm | - | 14 W/m² | - |
| 1777636920 | 12.22° C | 94% | 1018.5 hPa | 0 mm | - | 10 W/m² | - |
| 1777636615 | 12.22° C | 94% | 1018.5 hPa | 0 mm | - | 8 W/m² | - |
| 1777636312 | 12.22° C | 93% | 1018.7 hPa | 0 mm | - | 5 W/m² | - |
| 1777636007 | 12.22° C | 94% | 1018.5 hPa | 0 mm | - | 4 W/m² | - |
| 1777635703 | 12.22° C | 94% | 1018.4 hPa | 0 mm | - | 3 W/m² | - |
| 1777635400 | 12.22° C | 94% | 1018.3 hPa | 0 mm | - | 2 W/m² | - |
| 1777635097 | 12.22° C | 95% | 1018.3 hPa | 0 mm | - | 1 W/m² | - |
| 1777634792 | 12.22° C | 95% | 1018.1 hPa | 0 mm | - | 0 W/m² | - |
| 1777634490 | 12.22° C | 95% | 1018 hPa | 0 mm | - | 0 W/m² | - |
| 1777634187 | 11.67° C | 95% | 1017.8 hPa | 0 mm | - | 0 W/m² | - |
| 1777633883 | 11.67° C | 96% | 1017.9 hPa | 0 mm | - | 0 W/m² | - |
| 1777633581 | 12.22° C | 96% | 1018.1 hPa | 0 mm | - | 0 W/m² | - |
| 1777633279 | 12.22° C | 96% | 1018.1 hPa | 0 mm | - | 0 W/m² | - |
| 1777632976 | 12.22° C | 96% | 1018 hPa | 0 mm | - | 0 W/m² | - |
| 1777632672 | 12.22° C | 96% | 1017.9 hPa | 0 mm | - | 0 W/m² | - |
| 1777632369 | 12.22° C | 97% | 1018 hPa | 0 mm | - | 0 W/m² | - |
| 1777632066 | 12.22° C | 97% | 1017.8 hPa | 0 mm | - | 0 W/m² | - |
| 1777631764 | 12.22° C | 97% | 1017.9 hPa | 0 mm | - | 0 W/m² | - |
* Rain latest hour (hover to see other rain measurements)
** Current wind speed in m/s (hover to see current wind gust speed)